Powrót do katalogu

CZ-6A DEB

AktywnySSO
NORAD 54568·DEBRIS·🇨🇳 China

Wystrzelony Nov 11, 2022 z Taiyuan Satellite Launch Center

Loading…

Następne Przeloty (najbliższe 24 godziny)

TLE

ŚwieżeSource: Space-Track

Epoka: Sep 14, 2026, 07:46 UTC

1 54568U 22151LU  26257.32426566  .00003530  00000-0  99592-3 0  9993
2 54568  98.7402 301.8171 0029056  26.3850 333.8813 14.46135143200640

Śledź CZ-6A DEB w czasie rzeczywistym z AllMySat

Download on the App Store